Theta_e
300 301 302 302 302 302 302 302 302 303 303 300 298 300 298 299 298 313 314 316 306 297 290 293 290 290 294 299 299 300 298 296 297 295 297 297 295 294 295 295 292 295 293 293 290 291 289 290 288 294 296 297 299 302 303 304 302 301 298 301 301 307 286 284 286 293 294 296 299 301 300 299 296 297 297 294 289 289 287 284 286 284 286 283 283 279 284
300 301 302 301 302 302 301 302 302 303 303 301 300 297 297 302 302 304 311 315 309 299 286 285 286 294 298 298 298 300 298 297 295 293 296 294 293 294 296 294 296 292 294 293 290 294 282 293 291 291 298 294 303 303 303 304 299 301 298 296 303 288 289 287 282 282 283 287 292 293 298 297 294 293 297 299 299 296 293 294 290 283 286 286 282 279 282
300 301 302 301 301 302 301 302 302 303 304 304 300 294 298 301 306 305 307 312 307 296 298 295 288 293 294 296 295 295 296 297 296 295 296 298 297 295 294 296 296 295 296 293 293 294 291 288 293 293 296 296 303 303 302 304 300 304 307 307 306 292 290 288 280 278 275 275 278 282 284 289 293 297 298 300 298 296 292 284 283 280 287 289 282 282 290
300 301 301 301 302 301 301 301 302 303 303 304 301 297 297 298 285 298 302 305 303 302 306 300 296 293 294 288 294 296 294 297 297 298 296 297 297 294 293 295 297 294 294 293 292 291 295 292 291 290 292 296 299 301 304 302 301 306 308 307 303 293 297 292 288 284 282 284 288 294 295 293 289 294 296 297 298 297 294 290 284 282 284 283 287 290 291
302 301 301 301 301 301 301 301 302 303 303 304 300 299 297 302 293 290 287 299 299 298 300 298 299 292 297 285 296 292 294 297 296 297 292 299 295 296 296 295 293 292 290 291 291 293 292 295 294 293 293 297 298 301 301 301 304 310 305 307 299 294 287 293 294 294 292 296 295 296 296 291 294 293 294 297 297 295 292 286 285 293 285 281 287 294 292
301 301 301 301 301 301 301 301 302 303 304 305 302 295 299 291 294 298 303 293 286 289 290 298 297 299 298 293 297 295 294 294 289 296 295 295 297 292 293 293 294 293 295 292 286 291 292 293 287 296 296 297 294 296 300 299 304 304 302 305 300 292 284 294 293 293 296 297 297 297 296 295 293 293 293 293 295 295 291 291 294 292 284 283 291 294 294
301 301 301 301 300 300 301 301 302 303 303 304 300 294 301 304 300 301 303 292 298 295 297 299 298 296 296 293 295 295 295 294 297 295 296 295 294 295 282 292 293 294 294 292 288 291 284 282 294 293 293 295 293 291 295 300 302 301 298 300 299 294 286 295 295 292 294 296 296 297 295 292 291 290 291 293 294 293 293 294 295 296 292 295 295 294 293
301 301 301 300 300 300 301 301 302 303 303 303 298 297 296 297 296 296 302 301 296 297 298 297 295 293 296 286 295 296 296 293 295 297 294 286 293 296 293 293 294 295 294 293 288 292 293 292 286 296 293 292 293 291 290 289 296 298 296 299 298 292 284 295 294 288 290 294 296 295 293 290 287 289 290 291 293 294 293 291 291 296 295 296 294 292 290
301 301 300 300 300 301 301 301 302 302 303 298 298 299 302 307 307 304 297 293 297 297 297 294 292 290 291 288 295 295 296 294 296 295 297 294 294 296 294 294 294 295 294 294 295 296 296 296 296 295 295 287 296 289 292 297 293 298 295 296 293 293 285 295 292 283 284 293 293 292 290 289 286 285 287 288 290 290 291 287 289 292 293 294 293 289 288
301 300 300 300 300 301 301 302 302 303 303 298 299 298 310 311 308 307 300 290 295 291 295 295 292 286 292 296 295 294 296 296 295 286 295 297 297 298 295 294 292 293 294 294 294 295 296 296 295 294 294 295 294 294 295 296 292 291 295 296 291 292 286 286 284 283 283 291 293 291 288 286 284 283 285 288 290 293 295 294 294 292 295 290 288 289 293
300 300 300 300 301 301 301 302 302 303 301 298 298 300 302 304 301 303 301 290 286 290 293 292 292 294 298 299 296 296 295 294 296 286 285 296 296 297 296 295 292 289 292 295 299 298 298 297 296 295 295 294 294 294 294 296 295 294 295 293 293 294 293 285 288 281 281 290 291 290 282 277 280 288 292 291 289 291 289 290 294 295 295 292 296 294 294
300 300 300 300 301 301 302 302 302 302 303 301 301 298 301 303 304 304 294 286 287 293 292 289 293 295 296 295 296 296 296 296 295 296 292 296 297 298 298 297 294 283 297 299 298 296 297 297 297 295 295 294 294 294 295 294 294 295 295 294 290 291 290 285 291 282 282 284 285 281 274 276 287 293 292 293 294 294 292 290 292 293 293 292 290 291 291
300 300 300 300 301 301 302 302 303 303 304 303 301 298 303 306 302 301 297 292 287 292 288 293 297 296 296 296 296 295 297 298 297 298 297 295 295 296 297 296 294 297 299 297 296 294 290 289 289 291 292 294 294 295 295 295 294 296 296 296 293 286 287 286 286 284 283 281 281 276 277 286 291 291 291 293 294 291 293 290 292 293 293 292 289 290 290
300 300 300 300 301 302 302 303 303 303 304 304 301 301 302 303 301 302 298 290 288 294 294 291 293 293 295 296 294 294 294 294 294 296 294 297 296 296 298 299 298 298 297 295 293 291 285 286 281 283 286 290 288 287 294 295 294 295 294 295 296 294 292 288 284 285 280 281 282 280 285 285 285 286 287 289 285 286 286 284 287 293 293 292 290 290 290
300 300 301 301 301 302 302 303 303 304 305 305 303 301 301 302 303 303 304 299 287 291 294 285 291 293 293 293 294 290 290 292 290 289 295 299 296 298 299 300 296 296 296 291 287 290 284 283 280 279 281 280 276 279 289 287 293 295 296 296 297 294 285 287 285 283 284 281 280 280 280 276 280 286 291 294 295 292 293 290 286 293 294 294 292 290 290
300 300 300 301 302 302 303 303 304 304 305 306 303 301 302 304 306 307 305 297 292 283 288 298 298 296 292 291 292 292 287 285 288 290 292 294 295 297 297 296 297 298 296 294 290 285 284 281 279 279 278 279 285 281 278 285 285 293 296 297 296 297 296 288 284 283 283 282 281 280 278 278 284 286 290 293 294 294 293 288 283 290 294 295 293 291 292
300 300 301 301 302 303 303 304 304 305 305 305 301 302 302 308 308 307 302 301 299 285 295 297 299 299 292 290 293 289 290 285 287 282 284 287 295 293 294 296 299 299 296 291 290 285 282 282 284 282 281 286 282 280 285 282 281 281 291 294 292 287 286 285 283 282 283 283 281 276 281 279 284 288 290 293 295 295 289 281 280 289 293 296 295 293 293
300 300 301 301 302 303 304 304 305 305 305 306 303 301 302 308 310 308 303 299 291 288 294 297 295 291 289 291 289 295 296 295 294 293 287 291 293 292 293 296 293 299 300 288 289 283 282 281 280 280 280 286 288 286 277 284 279 280 281 284 284 285 283 283 281 282 282 281 279 280 281 285 288 288 290 293 294 291 283 279 282 291 292 292 291 290 291
300 300 301 301 302 303 304 305 305 306 306 306 305 303 303 305 307 310 305 300 296 284 293 298 299 297 297 300 296 296 296 295 294 286 286 284 289 294 296 297 295 287 295 287 289 283 282 281 286 284 281 282 288 280 287 283 281 286 285 282 284 282 283 283 283 282 281 280 279 278 280 285 288 290 291 291 289 281 279 286 293 292 289 290 290 289 290
300 300 301 302 302 303 304 305 306 306 307 307 305 300 304 308 311 309 304 297 296 290 293 294 297 295 297 294 290 290 292 293 293 290 286 284 295 297 289 285 292 293 288 289 281 287 282 280 282 286 282 281 285 290 284 285 290 286 284 284 283 282 282 280 279 282 284 282 279 278 274 283 289 289 289 290 284 283 288 290 291 292 290 290 289 289 289
300 300 301 302 303 304 305 305 306 306 307 308 306 301 302 310 310 311 308 306 301 286 288 297 297 295 296 295 296 296 295 291 292 290 293 293 297 291 281 283 288 288 284 285 280 282 284 281 283 282 287 284 286 288 283 283 286 290 289 285 283 286 282 281 280 281 278 276 275 275 281 285 290 289 282 286 289 293 294 291 288 290 290 289 288 289 289
300 301 301 302 303 304 305 305 306 306 307 307 306 304 300 305 311 312 314 311 295 286 292 296 297 297 298 300 298 297 298 298 300 300 294 290 296 292 291 293 292 292 292 293 285 285 287 286 288 284 284 285 289 284 288 283 281 286 289 287 278 286 283 285 280 283 280 278 281 285 287 288 291 290 290 291 294 294 292 290 289 288 289 291 289 289 291
300 301 301 302 303 304 304 305 305 306 307 307 306 305 303 305 308 311 304 295 298 298 300 299 298 297 298 299 300 300 300 302 304 304 302 295 287 294 293 291 292 298 297 296 288 287 287 287 283 289 286 286 285 284 286 284 283 285 282 288 285 289 289 289 286 283 288 289 289 289 289 289 290 291 293 292 293 294 292 291 288 290 291 292 290 291 292
300 300 301 302 303 303 304 305 305 306 306 307 306 304 304 307 311 308 301 300 292 288 291 294 291 284 292 295 298 299 298 300 303 306 306 303 287 289 296 298 299 300 297 299 299 292 287 287 290 292 284 288 290 284 282 282 284 287 286 286 289 290 291 288 282 286 284 279 287 287 287 289 289 290 292 294 294 292 293 291 291 291 292 293 293 293 293
300 301 301 302 303 303 304 305 305 306 306 307 306 307 307 306 309 307 304 287 290 287 283 284 287 297 297 300 298 297 298 301 304 306 307 304 298 292 290 298 301 296 296 300 300 294 289 285 288 286 283 289 293 283 289 285 285 290 282 282 283 283 291 285 285 285 282 282 286 288 290 290 291 291 290 290 292 293 294 294 294 294 295 295 295 295 294
300 301 301 301 302 303 304 304 305 305 306 306 307 306 308 307 309 309 306 303 297 291 283 283 290 300 299 297 296 299 302 301 302 304 303 303 303 302 300 302 302 304 301 300 298 289 287 287 287 287 286 287 294 285 284 288 287 289 285 284 287 288 292 282 286 283 285 288 289 289 290 290 290 291 292 292 292 292 292 293 293 293 292 292 293 294 293
300 300 301 301 302 303 304 304 305 305 305 306 305 306 308 309 311 305 302 303 293 283 286 284 290 296 298 297 299 300 302 301 301 302 302 303 303 302 301 299 296 296 297 295 296 288 289 286 286 286 289 288 292 289 290 288 287 284 284 287 290 287 283 287 286 282 282 283 285 289 283 282 288 290 291 292 292 292 292 292 292 292 292 292 291 291 292
300 300 301 301 302 303 303 304 305 305 305 306 308 310 311 309 308 307 308 305 299 285 284 285 287 292 299 296 300 300 301 301 300 300 299 300 301 301 299 296 295 293 292 289 285 285 285 286 286 287 287 290 288 286 290 289 288 287 287 288 290 286 287 286 283 282 281 287 289 290 289 288 289 290 292 293 293 293 291 291 291 292 292 292 291 290 290
300 300 301 301 302 303 303 304 305 305 305 305 308 310 305 308 310 311 312 311 306 302 289 290 294 294 287 295 301 298 301 302 302 299 298 298 298 297 296 296 294 294 293 289 286 285 285 285 286 286 287 292 288 284 287 282 283 282 286 290 291 291 292 289 288 288 288 290 290 291 290 288 290 292 293 293 294 293 292 292 292 292 292 292 291 291 289
300 300 301 301 302 303 303 304 305 305 306 307 306 303 294 297 310 308 308 311 308 306 287 285 282 286 298 299 297 299 300 301 301 301 299 297 296 295 295 294 292 296 294 288 286 283 286 286 287 293 295 297 287 284 281 282 282 284 290 291 292 292 293 293 292 289 287 292 292 292 291 292 293 293 294 294 294 294 292 292 292 292 292 292 291 291 291
300 300 301 301 302 302 303 304 305 305 306 308 303 290 287 286 299 309 305 312 310 304 289 287 285 290 289 297 297 295 297 298 297 296 297 296 295 295 296 295 294 293 283 285 285 286 285 285 286 288 293 292 287 282 281 282 282 284 289 290 291 291 292 291 292 292 292 292 293 293 293 292 293 293 292 292 292 293 292 292 294 295 293 292 290 290 289
300 300 301 301 302 302 303 304 305 304 306 306 300 296 299 300 304 304 305 310 310 302 287 284 284 284 285 290 299 299 298 299 299 299 295 298 293 296 294 294 290 296 291 285 286 286 285 287 286 288 288 292 289 283 283 282 281 282 288 290 292 292 293 292 292 292 292 293 292 290 289 289 290 289 287 290 291 291 291 292 292 293 293 292 291 290 289
300 300 301 301 302 302 303 304 304 303 301 304 304 304 304 302 304 304 308 310 307 296 295 286 282 284 284 290 297 301 302 300 297 296 293 297 293 294 288 295 295 294 299 289 284 284 289 285 285 285 289 292 284 284 284 283 284 289 290 291 292 293 293 294 294 293 292 292 292 287 286 287 289 290 291 291 291 291 290 290 291 292 291 290 290 289 289
300 300 300 301 302 303 303 304 304 304 305 306 304 306 308 304 304 305 311 308 303 301 291 285 283 283 283 293 291 295 299 293 291 294 285 296 298 294 288 292 292 285 290 285 287 286 287 286 284 285 288 285 284 283 282 285 288 289 290 291 291 291 292 292 292 292 291 291 292 291 291 291 292 293 292 292 292 292 292 292 291 290 290 290 290 289 289
300 300 300 301 302 303 304 304 305 306 303 307 305 306 307 304 303 304 312 303 291 286 286 287 286 282 282 284 283 290 301 295 287 292 286 290 298 292 293 285 287 283 285 295 285 284 284 285 289 283 282 285 282 281 283 286 287 288 289 289 290 290 289 288 288 289 290 291 291 291 291 291 290 289 289 291 292 293 292 292 292 290 289 288 288 289 289
300 300 300 301 302 303 303 306 305 305 301 302 304 307 305 304 308 311 310 309 302 293 285 284 285 282 284 281 281 285 298 292 294 294 292 288 290 296 293 287 282 286 293 287 282 286 283 290 285 281 284 281 280 282 284 287 287 288 289 289 289 290 289 288 288 289 290 291 292 292 291 290 289 289 290 290 291 291 292 292 292 291 289 288 288 288 289
300 300 301 302 303 302 300 297 305 306 305 305 307 305 304 307 309 308 308 305 307 303 295 286 284 286 289 283 286 287 293 282 292 287 290 286 284 287 287 283 281 285 284 283 283 282 286 292 284 281 281 280 281 287 289 289 289 289 289 290 291 291 290 290 291 291 291 291 292 291 290 289 289 290 290 289 289 290 290 290 289 289 288 288 288 288 288
300 301 299 301 301 292 290 294 303 309 305 302 303 302 297 299 289 289 291 289 297 298 290 295 285 288 290 287 282 291 291 285 292 283 284 287 284 284 286 284 283 285 280 282 285 292 286 284 282 281 281 287 290 291 291 291 291 291 291 291 291 290 290 290 291 291 289 288 288 289 289 288 287 288 289 288 288 288 289 289 289 289 289 289 289 289 289
299 299 301 302 298 289 290 299 307 302 310 305 306 292 288 290 288 286 286 288 288 286 289 290 286 291 288 287 288 295 293 285 283 285 282 288 284 280 284 281 282 283 281 281 283 293 281 281 282 281 280 284 287 289 292 291 291 293 293 292 292 292 293 292 292 290 288 287 288 290 289 287 287 288 288 288 289 291 291 291 290 290 289 289 289 289 290
300 298 293 295 292 294 304 303 303 306 305 292 292 290 285 288 285 282 288 284 284 286 289 285 293 293 291 289 288 288 295 291 281 281 283 285 291 282 284 283 284 282 277 279 281 290 280 277 281 280 280 283 285 290 292 293 291 291 292 292 292 292 293 293 293 293 292 291 292 292 292 292 292 291 291 291 291 290 290 290 290 289 289 288 288 289 289
301 301 300 291 299 302 302 304 305 304 294 289 288 287 286 283 286 287 285 283 283 284 291 291 292 290 292 293 291 286 294 298 294 291 285 282 290 288 282 280 284 280 279 279 283 284 282 280 280 279 279 283 285 288 291 291 291 291 292 293 293 293 293 293 293 293 292 291 291 291 292 291 291 290 291 291 291 290 290 290 290 290 289 290 288 288 290
296 295 297 299 299 303 303 299 295 291 289 289 284 281 284 284 286 285 285 281 282 285 290 292 286 288 287 291 291 293 289 297 291 286 284 281 285 284 281 283 283 279 276 282 283 283 281 277 278 278 281 284 288 289 289 289 289 289 291 292 292 292 291 292 292 293 293 292 291 291 291 291 290 290 290 290 290 290 290 289 289 288 288 290 291 291 291
300 301 299 298 296 292 292 288 289 287 280 281 279 279 283 281 282 282 282 286 289 289 289 298 293 295 295 297 292 294 290 296 287 285 284 282 286 285 281 281 280 277 280 285 282 280 278 277 277 280 284 285 288 289 289 289 289 289 290 291 291 291 291 291 291 291 292 292 291 290 291 290 290 290 290 290 290 289 289 289 289 290 290 290 290 290 290
300 302 299 292 288 288 289 279 287 284 281 282 280 277 279 280 281 283 282 284 288 287 292 290 290 289 284 291 288 287 288 291 289 286 284 285 283 280 280 278 279 283 286 282 281 277 278 281 281 283 285 288 290 289 289 290 290 289 290 291 291 291 291 291 291 291 291 291 291 291 291 289 291 291 291 290 291 290 289 289 289 290 290 290 290 289 289
294 291 289 286 283 286 284 274 284 282 277 280 283 282 281 279 281 283 283 287 292 288 292 292 290 290 286 291 290 289 288 284 287 283 280 283 280 281 279 279 283 283 280 278 279 279 280 278 282 285 287 287 288 289 290 290 290 289 289 290 290 291 291 291 291 290 290 290 291 291 290 290 290 289 290 290 290 291 290 289 291 289 290 290 290 289 288
290 286 285 278 274 280 282 279 280 278 282 284 282 284 284 285 286 286 292 293 291 291 290 292 293 291 286 289 284 284 286 285 283 283 284 284 279 278 283 285 284 279 278 279 276 274 278 281 282 284 288 289 289 289 290 290 290 291 290 290 291 291 291 291 290 290 290 290 290 290 290 289 290 290 290 290 289 290 290 291 291 292 291 290 289 288 289
290 288 287 284 279 282 285 279 280 282 285 286 287 287 288 289 291 292 293 294 292 293 293 294 292 290 286 286 286 286 287 286 282 284 285 279 279 282 286 280 276 278 274 274 275 277 280 283 284 287 289 289 289 290 290 290 290 290 291 290 290 291 291 291 291 290 290 290 290 291 290 290 290 291 291 290 291 291 291 291 291 291 291 291 290 290 289
285 288 286 277 275 281 280 282 288 287 288 289 289 290 291 293 292 291 295 296 294 295 294 293 288 289 286 289 289 284 284 285 282 282 285 282 283 280 278 277 277 279 280 277 277 282 284 285 286 288 289 290 290 290 290 290 290 290 290 291 290 291 292 292 292 292 292 291 290 290 290 290 291 290 290 290 289 290 291 292 292 291 292 292 290 290 290
291 286 283 282 283 283 283 286 288 285 287 289 290 291 292 293 291 293 294 295 294 294 294 291 287 286 284 287 284 283 281 284 280 279 283 281 277 273 274 272 275 275 280 282 281 285 286 287 288 290 290 290 291 291 291 291 291 290 291 292 292 292 292 291 291 291 291 292 291 291 290 291 290 290 290 290 291 292 293 293 293 292 292 292 291 291 290
287 285 286 285 284 284 286 287 287 284 287 289 290 289 290 291 292 294 296 295 295 292 291 289 289 286 286 285 282 282 281 283 282 283 280 278 278 279 278 274 277 277 279 283 284 287 288 289 290 289 290 291 291 291 291 292 291 291 292 292 292 293 293 292 291 291 292 291 291 291 291 290 289 290 290 290 291 293 294 293 292 291 292 291 291 291 292
289 287 285 291 285 283 285 282 283 283 284 286 288 289 291 290 291 293 297 296 295 290 287 284 285 285 284 282 281 278 280 284 282 280 279 279 282 280 277 276 278 282 284 287 289 290 290 290 288 290 290 291 291 291 292 292 292 293 293 292 292 293 293 293 292 291 293 293 291 289 291 292 292 293 294 293 292 292 293 291 292 292 292 291 291 291 291
286 283 283 286 290 289 289 288 289 289 288 289 289 291 292 292 295 296 299 295 291 286 284 287 285 283 281 279 281 284 285 283 281 281 279 281 283 280 279 280 281 284 288 289 288 289 289 289 289 289 291 291 291 292 292 292 292 292 292 292 292 292 292 292 292 292 293 292 291 290 291 291 293 292 291 291 290 291 290 291 293 293 293 293 293 292 292
Wind_Speed
13 12 13 12 12 12 12 12 13 12 13 7 6 6 3 3 2 5 5 3 9 4 2 3 3 4 5 9 12 11 10 3 2 2 1 1 1 2 1 1 5 2 1 4 4 4 3 4 4 6 7 3 9 8 12 11 10 3 4 4 6 3 1 2 3 1 3 5 5 4 4 6 5 8 14 8 5 7 7 5 6 6 3 3 1 2 1
12 12 13 12 12 12 11 12 12 12 10 6 6 3 3 1 2 4 2 4 6 3 3 2 4 4 6 8 10 9 7 2 3 4 2 1 3 1 0 3 2 3 3 2 2 3 2 5 4 3 3 4 11 12 10 9 4 5 1 3 5 3 3 3 1 2 2 4 6 7 6 7 4 2 6 13 15 9 2 5 3 5 5 9 7 4 2
12 12 12 11 12 12 11 11 12 12 12 9 4 3 4 3 1 3 3 3 3 4 1 1 1 3 5 6 6 5 7 2 5 5 6 6 1 1 1 1 2 2 1 4 7 5 3 1 5 4 7 5 9 11 12 8 5 6 5 4 2 2 1 3 1 2 1 1 1 3 5 5 3 3 13 14 15 9 8 3 2 3 3 7 5 3 1
11 12 11 11 12 11 10 11 10 11 11 11 4 2 3 1 1 2 1 2 3 4 2 5 4 4 5 3 3 6 2 3 5 0 5 4 5 3 4 4 1 7 4 1 2 4 3 1 1 2 5 4 5 7 7 8 7 9 8 5 4 1 2 2 3 3 5 3 4 3 4 2 5 10 12 12 8 6 5 3 2 3 2 3 2 8 8
11 11 10 10 10 10 10 10 10 10 10 10 4 3 3 3 1 0 1 1 5 4 5 9 9 5 4 1 1 4 6 1 2 4 1 1 4 2 0 1 2 1 4 3 3 5 5 7 8 7 3 3 2 6 7 4 6 8 5 8 1 2 3 3 5 4 4 3 3 4 5 3 6 12 10 9 10 5 6 5 1 1 3 1 2 9 12
11 11 11 11 10 10 10 10 10 10 9 9 3 3 3 1 3 4 1 1 4 5 6 10 10 9 9 2 3 2 3 2 1 0 2 4 2 2 4 5 2 5 1 5 1 4 6 4 1 3 3 2 2 2 3 4 6 5 1 4 3 3 1 1 3 2 1 1 5 6 7 8 9 10 9 11 8 10 7 2 2 5 3 4 1 6 8
11 11 10 11 10 9 10 10 10 9 9 7 3 3 3 3 1 3 4 1 4 6 6 6 6 7 3 0 1 1 0 1 1 1 1 2 2 1 2 5 1 3 3 3 2 3 2 3 4 2 2 2 0 2 2 1 3 1 2 3 1 2 1 0 3 2 1 4 7 7 10 7 11 8 9 8 8 7 5 2 1 1 6 4 7 14 13
10 10 10 10 9 9 9 10 9 8 8 6 4 5 3 1 0 3 1 1 8 6 3 2 4 2 2 0 1 2 0 0 5 1 1 1 1 5 3 5 2 5 8 5 3 2 1 3 1 0 2 4 1 2 2 2 2 2 2 0 3 3 1 1 1 1 1 5 8 9 10 8 8 10 10 11 8 5 6 3 9 5 8 9 8 12 11
10 11 11 10 9 8 9 9 8 8 5 4 4 3 6 2 2 3 6 5 6 7 3 1 1 3 0 1 0 2 1 1 2 2 2 6 0 2 1 4 9 5 5 6 4 2 4 2 1 4 1 1 1 2 2 4 1 3 1 1 1 1 1 0 1 2 0 3 8 9 10 12 12 10 13 13 10 7 6 4 3 4 5 9 10 7 6
10 11 10 9 9 8 9 9 8 7 4 3 3 5 1 1 5 5 3 3 7 2 4 2 3 1 1 2 2 3 3 5 3 2 4 6 4 3 6 5 3 4 2 2 5 5 4 4 5 4 4 4 4 1 2 6 5 3 3 1 1 0 1 1 2 4 1 3 9 9 6 5 5 5 6 10 6 7 4 5 7 5 4 5 5 6 7
10 10 10 9 9 9 9 9 8 6 4 3 3 5 6 3 4 5 2 2 4 2 3 4 3 2 2 3 3 1 3 5 1 5 1 2 4 7 6 5 2 0 3 2 3 3 4 2 4 3 5 5 6 6 5 6 2 1 4 1 1 1 1 1 2 3 2 2 5 4 2 2 1 2 5 5 5 7 8 5 7 8 7 4 6 9 10
11 11 10 10 9 9 9 9 8 7 5 5 5 6 6 6 7 5 3 3 5 6 4 1 3 1 2 5 6 2 0 4 6 4 4 4 5 6 3 4 6 0 2 1 2 5 4 5 7 7 8 8 7 8 8 5 4 5 4 2 3 3 2 3 0 3 3 2 0 4 1 1 2 1 4 5 5 5 10 9 11 9 13 15 14 13 12
10 10 10 10 10 10 9 10 8 8 6 5 4 7 5 4 5 4 3 3 2 8 3 4 5 4 7 7 4 1 2 1 3 5 3 3 4 5 3 1 1 1 3 2 5 3 3 3 5 4 4 2 4 3 8 9 8 6 5 10 6 2 4 1 2 2 2 2 1 2 2 1 1 2 5 5 2 8 2 11 9 7 8 11 13 12 12
10 11 10 10 10 10 10 10 10 9 9 5 6 7 7 6 4 3 2 3 4 7 6 6 7 9 5 3 2 3 4 4 2 4 0 2 2 2 3 2 2 3 4 5 2 1 3 1 1 4 4 4 2 2 3 5 8 8 9 9 8 8 7 1 3 2 4 2 4 6 5 2 7 4 6 6 2 5 4 6 6 8 5 8 12 11 10
10 11 11 11 11 11 11 11 10 9 9 6 6 7 8 7 6 4 3 2 3 7 3 4 3 4 3 1 1 1 2 3 4 3 5 4 4 4 3 0 5 5 3 2 1 0 2 1 0 1 1 1 0 1 3 3 2 5 3 7 7 7 3 4 4 2 6 7 6 4 2 2 2 1 4 2 1 2 3 1 4 6 3 6 10 12 10
11 12 12 12 12 11 11 11 10 9 8 7 5 7 9 9 6 6 6 3 2 3 3 3 2 2 2 2 1 1 3 3 1 2 4 4 6 4 4 4 2 2 1 0 2 0 1 2 0 1 0 1 1 1 2 1 3 3 7 8 10 4 3 2 1 3 5 5 6 3 3 2 1 6 7 5 1 2 2 1 4 5 7 7 7 9 8
12 13 13 13 13 12 12 11 10 9 8 5 4 5 8 7 6 6 2 2 0 2 4 5 3 2 2 3 4 4 3 1 2 1 2 0 1 3 7 5 3 2 3 0 0 1 1 1 1 2 1 1 0 1 0 1 1 4 4 4 7 3 1 4 6 4 2 4 4 3 2 2 3 7 7 6 2 3 1 3 2 5 8 4 6 8 6
13 13 13 13 13 13 13 12 11 11 9 6 5 5 6 6 6 4 2 2 0 2 2 3 6 5 3 2 2 1 1 3 4 3 2 4 5 5 1 2 3 2 3 2 1 1 1 2 1 0 0 2 1 1 0 1 1 1 2 2 3 3 2 3 2 1 6 9 4 5 3 2 4 7 9 3 2 1 2 2 3 2 6 6 9 8 6
13 13 14 14 14 14 13 13 12 12 10 7 4 6 9 10 9 4 1 2 2 1 3 4 1 5 6 7 5 4 4 4 3 3 4 5 3 7 4 7 4 3 4 1 1 1 1 0 1 1 1 1 1 2 1 2 1 1 2 2 2 3 2 2 3 6 4 3 5 4 3 1 7 8 4 2 1 2 3 0 2 4 8 8 9 11 9
13 14 14 14 15 14 14 13 13 12 11 7 3 5 8 8 6 5 1 1 2 3 5 7 7 9 5 6 7 6 7 8 5 4 3 3 6 9 7 6 6 2 5 2 2 1 1 1 1 0 2 2 1 1 2 3 6 4 2 1 4 2 2 2 2 2 1 3 5 3 2 1 8 12 3 5 2 2 1 4 9 8 8 10 10 10 8
14 14 15 15 15 14 14 13 13 12 11 9 3 3 6 4 5 4 5 3 1 3 4 5 5 7 5 6 5 4 5 5 3 2 3 2 4 2 2 0 4 2 1 1 2 0 0 2 1 2 1 1 0 2 2 2 3 10 4 3 4 5 1 3 1 1 3 3 3 1 2 3 9 6 4 2 3 2 3 6 8 7 7 9 10 10 8
15 15 15 15 15 14 14 14 14 12 11 9 3 3 3 6 4 4 3 6 2 3 1 3 2 3 4 3 6 5 5 5 3 0 1 4 5 6 4 4 3 1 0 1 2 2 3 1 1 2 2 1 1 3 2 3 5 3 8 5 4 9 4 2 6 3 1 2 3 3 4 4 5 7 5 6 9 9 9 9 9 9 9 8 12 11 8
15 15 15 15 15 15 15 15 14 14 11 10 5 4 4 6 4 2 5 5 2 1 0 0 0 2 3 4 3 5 4 3 3 1 1 1 4 4 5 2 2 2 2 3 3 3 1 2 3 1 2 3 3 6 9 5 3 4 5 6 7 6 11 5 8 9 11 11 8 6 6 6 7 7 7 9 11 10 9 10 11 9 9 7 10 10 10
15 15 16 15 16 16 16 16 15 14 12 9 4 3 4 6 1 3 3 2 1 1 4 8 3 3 2 4 4 3 3 2 1 1 1 2 4 2 1 1 2 3 3 1 1 4 2 2 3 2 4 3 3 5 4 6 4 4 5 3 3 5 2 3 6 6 1 6 3 6 7 8 10 11 11 11 10 10 9 10 11 10 10 10 9 9 9
15 15 15 16 16 16 16 16 16 15 13 11 8 7 6 4 2 3 2 2 0 2 2 2 3 1 4 1 2 3 2 3 2 3 1 2 5 4 4 0 3 7 5 1 3 6 2 4 3 3 7 2 1 5 3 5 6 3 6 3 3 5 4 13 8 9 7 5 6 9 10 9 9 7 9 11 11 11 9 8 8 8 7 7 8 8 8
15 15 16 16 16 16 17 17 17 16 13 13 6 3 3 0 3 4 1 0 3 2 3 1 1 3 1 4 5 4 3 3 1 4 5 4 2 3 6 1 3 3 4 3 4 5 5 4 3 2 4 6 3 4 7 7 9 7 7 5 2 3 2 4 1 7 9 11 10 11 13 12 11 11 10 8 9 11 12 11 11 10 10 8 6 4 6
14 15 16 17 17 17 17 18 17 16 16 14 6 2 3 1 6 4 2 1 2 3 1 1 1 2 4 4 3 4 3 3 4 6 6 5 5 7 8 5 4 4 5 3 2 4 3 4 4 7 4 5 3 6 6 6 5 5 7 8 9 10 11 8 7 9 5 3 7 6 7 7 8 9 10 10 10 12 12 11 11 10 9 8 11 11 9
14 15 16 17 18 18 18 18 17 18 17 16 9 6 3 2 3 6 3 3 3 3 3 2 4 3 1 7 6 4 3 3 4 5 5 7 8 6 7 9 9 8 6 6 6 4 4 7 7 2 3 3 5 7 4 4 4 8 7 5 3 6 6 3 4 5 7 9 11 10 11 12 10 11 11 11 10 11 11 11 11 10 9 8 9 9 7
14 16 16 17 17 18 18 18 17 16 17 12 5 4 4 3 6 4 2 1 2 1 4 2 1 2 2 2 3 5 4 3 4 5 5 7 9 9 8 6 5 4 5 4 3 3 4 4 2 3 3 2 4 6 4 8 9 10 8 10 11 9 10 10 10 13 12 11 10 8 9 11 12 12 12 10 9 10 11 9 8 8 7 6 6 5 5
14 15 16 17 17 18 18 17 17 16 15 5 3 1 2 1 4 5 6 4 2 1 3 2 4 1 1 3 5 6 8 9 9 9 8 5 5 6 5 5 4 3 3 3 3 4 3 3 3 3 4 4 4 2 4 5 9 9 8 10 9 10 9 8 6 8 10 10 9 9 11 12 10 11 11 11 10 10 10 10 9 8 7 7 7 6 4
14 15 16 17 17 17 17 17 16 17 10 3 2 0 2 1 1 4 7 4 2 2 1 2 3 0 3 2 4 8 8 6 6 6 8 7 8 7 6 5 5 4 5 5 5 5 3 5 4 5 5 6 3 3 4 6 9 8 8 9 9 8 8 9 10 11 12 12 11 10 11 10 8 8 7 7 8 8 8 7 9 9 9 7 7 6 5
14 15 16 17 17 17 17 15 14 12 6 3 2 1 0 1 1 6 8 5 2 3 4 3 1 1 0 0 1 2 4 4 4 3 3 3 6 6 8 6 4 5 3 4 3 4 6 6 5 5 4 3 4 5 5 6 8 6 5 9 9 10 9 10 10 11 12 12 13 11 10 8 7 8 7 8 8 7 8 8 9 10 12 9 8 7 7
14 15 16 17 17 17 16 14 14 8 3 4 6 6 2 3 9 8 6 2 3 1 2 2 2 1 1 1 1 2 2 1 3 1 4 1 4 1 3 1 3 4 8 7 4 3 2 3 3 5 3 1 3 4 5 6 7 6 7 8 9 10 11 10 10 10 12 11 9 10 9 8 7 8 9 8 8 7 7 7 8 8 9 9 8 7 5
15 16 16 17 17 17 16 14 13 10 4 1 1 1 2 3 4 6 3 1 1 1 1 2 1 1 1 2 2 1 2 1 3 1 2 2 1 3 3 2 2 3 3 5 3 4 3 4 6 5 4 6 3 4 7 8 8 8 7 7 7 8 10 10 8 7 4 5 6 6 8 9 10 10 9 8 8 7 8 7 7 4 10 9 9 8 8
15 16 16 17 17 16 15 10 5 0 1 2 2 0 2 8 4 7 3 3 2 0 1 1 2 3 2 1 1 2 1 0 3 1 3 1 1 2 1 2 1 5 3 1 3 3 4 3 4 5 6 3 4 5 4 7 7 6 8 11 11 11 10 10 7 8 9 8 8 8 7 6 5 4 6 8 9 8 8 8 7 5 7 5 4 5 5
16 17 17 18 18 11 5 2 1 2 1 1 2 3 4 8 6 1 2 1 2 0 1 2 2 3 2 3 3 1 1 2 2 2 2 1 2 2 2 2 5 3 0 3 3 2 4 6 2 5 1 3 3 3 6 6 6 6 6 6 5 6 7 9 7 6 6 7 8 7 8 5 6 6 7 8 7 6 6 7 7 7 7 6 5 6 6
17 17 19 15 5 0 1 1 1 0 2 1 5 7 8 4 1 2 0 1 1 2 0 1 2 3 3 3 0 1 1 3 0 3 1 1 2 0 3 3 4 1 3 4 4 4 4 4 5 5 3 4 4 5 5 6 7 8 9 9 9 8 7 7 9 10 9 9 9 7 6 6 6 6 7 5 5 4 6 6 5 6 6 6 6 5 5
18 16 4 1 1 0 1 1 0 0 3 5 5 1 5 5 0 1 1 1 0 1 1 0 1 3 3 6 2 1 1 2 0 2 1 1 1 1 1 2 1 1 4 2 3 2 3 3 3 5 4 5 7 9 9 7 6 6 7 9 9 8 7 6 5 7 6 6 6 7 5 5 5 4 6 5 5 6 6 6 5 5 4 5 5 4 5
8 3 2 1 0 0 1 2 1 3 1 1 2 1 1 1 0 0 0 1 0 1 1 1 2 2 5 5 1 1 1 3 3 1 1 2 2 0 1 2 1 2 2 2 1 1 3 3 2 3 5 4 7 6 7 6 4 5 9 9 8 8 7 7 5 6 5 4 5 5 6 7 6 6 5 5 4 4 6 8 8 7 6 5 4 5 7
1 1 0 0 0 0 1 2 4 1 0 1 0 1 1 1 1 1 0 0 1 1 0 0 1 3 4 7 5 0 2 1 3 3 2 1 1 2 1 1 1 2 2 2 2 0 3 4 2 3 3 3 5 5 7 5 8 6 6 7 7 6 5 5 6 7 8 6 6 6 6 6 5 6 6 5 6 7 7 6 6 6 5 4 5 5 3
1 2 2 1 3 1 1 1 0 1 0 0 0 0 1 0 2 1 0 0 0 1 1 2 2 3 3 4 3 2 1 0 0 3 3 2 2 1 1 0 0 1 1 1 1 2 2 3 2 3 3 4 5 4 5 5 6 5 7 8 8 6 5 5 8 6 6 6 6 7 8 8 8 7 7 7 7 8 7 6 5 5 5 4 4 5 8
2 2 4 4 6 5 2 1 0 0 1 0 1 1 1 1 0 1 0 2 1 0 1 1 4 3 3 2 3 2 1 1 1 2 2 1 1 1 1 1 0 1 1 1 3 2 2 2 3 3 3 5 6 5 5 7 5 6 6 8 8 5 4 6 8 7 8 9 7 7 8 9 9 7 6 6 6 5 5 5 6 5 4 2 4 7 6
16 11 5 3 2 0 0 0 1 1 1 1 1 1 0 0 0 2 1 1 1 0 1 3 3 2 3 3 4 2 2 0 1 1 2 0 1 0 1 0 0 1 1 1 1 3 3 3 3 6 6 4 5 9 7 5 5 4 4 5 6 5 6 8 9 8 8 8 7 6 5 6 6 5 5 5 7 6 6 5 4 2 2 4 6 5 5
6 3 2 1 1 1 0 0 1 2 2 1 1 1 0 0 1 0 0 1 0 1 2 3 2 4 3 1 2 0 2 2 1 2 1 0 1 1 0 1 0 1 0 0 1 2 2 1 4 7 6 6 7 8 8 8 7 5 3 4 6 6 8 8 9 9 8 7 6 6 6 5 5 5 4 4 7 8 5 4 2 2 1 4 6 5 4
2 0 0 1 1 0 1 2 3 0 1 1 1 1 2 3 3 3 2 2 1 3 5 4 5 6 5 1 2 2 1 0 1 2 0 0 1 0 1 1 1 1 1 1 0 3 2 1 3 5 8 7 8 8 7 6 7 6 5 4 5 6 7 7 8 7 6 5 7 7 6 4 5 5 5 5 4 5 6 4 3 2 1 3 6 5 2
1 1 1 3 3 2 0 1 0 0 1 2 3 4 5 6 4 4 2 2 4 5 6 5 6 8 4 1 2 2 0 1 1 0 1 0 1 0 1 0 1 1 0 1 1 2 5 7 6 6 7 9 9 7 8 8 5 6 5 5 6 6 6 7 6 6 7 6 5 6 6 5 5 5 5 5 3 3 5 4 3 2 1 5 6 4 3
1 0 1 0 1 1 1 1 3 3 2 3 5 4 6 7 6 4 3 4 7 5 5 4 5 5 5 1 1 1 1 1 1 0 1 1 1 0 1 1 0 0 1 1 2 3 3 6 6 7 11 9 8 8 8 7 6 6 5 5 6 6 6 7 7 7 6 5 5 5 5 6 5 5 6 5 5 5 5 5 3 1 4 1 7 7 4
1 1 0 1 2 1 2 3 3 3 4 5 6 6 7 3 4 5 3 5 5 6 7 6 6 3 2 2 2 2 1 1 2 2 0 1 1 1 1 1 0 1 1 1 2 6 7 8 8 12 11 9 10 8 8 7 6 7 7 5 5 5 5 6 5 6 6 6 4 4 5 5 5 6 5 4 5 5 5 5 5 4 0 1 3 5 6
2 1 1 1 1 1 2 3 3 4 6 7 7 7 4 6 6 5 6 5 6 5 7 6 4 2 1 1 2 2 2 1 1 0 0 1 1 1 1 1 1 1 1 2 3 9 8 9 8 12 12 11 10 9 8 7 8 7 7 5 5 5 5 5 5 5 5 5 4 4 5 5 4 3 4 4 3 5 5 5 5 5 4 2 1 2 2
1 1 1 1 0 2 4 4 4 6 2 1 2 3 5 6 6 4 3 4 4 5 6 5 3 2 2 2 1 1 1 0 1 0 1 1 1 1 0 1 2 2 3 1 4 9 9 9 9 10 10 11 10 11 9 8 9 8 6 6 5 3 3 7 6 5 4 4 5 4 5 4 3 3 4 4 3 4 4 4 5 4 4 4 1 1 1
1 1 2 2 1 1 2 1 2 2 3 2 2 1 1 3 4 4 3 3 4 5 3 2 1 1 1 1 1 1 0 1 2 1 2 2 1 1 1 2 2 1 2 6 11 11 11 9 8 10 11 11 10 9 9 10 8 8 7 6 6 6 6 5 5 3 1 3 5 7 4 2 3 2 3 4 4 3 3 4 4 5 4 4 4 4 4
0 0 2 2 4 6 6 5 3 1 5 4 2 2 0 3 4 4 5 7 6 5 3 1 1 1 1 1 1 1 1 1 1 1 1 1 1 2 3 4 3 4 8 9 6 6 7 6 7 9 11 10 11 10 10 9 8 7 7 7 7 7 6 5 4 2 2 5 5 4 2 1 1 3 4 4 3 2 1 2 3 4 4 3 3 3 2
Wind_Direction
307 309 315 320 328 329 330 332 335 333 339 338 350 311 231 213 250 300 281 265 156 172 279 225 218 237 248 273 277 282 283 320 13 279 167 229 147 2 343 317 18 5 28 344 336 354 9 13 19 104 80 70 25 34 43 27 24 54 25 346 349 357 80 26 294 253 298 303 308 325 341 269 297 12 9 343 241 202 203 187 183 128 187 72 51 63 187
306 309 315 320 325 329 331 331 334 332 341 332 318 292 269 356 307 303 269 244 208 214 215 243 267 273 274 263 270 276 277 322 301 324 133 193 140 238 180 335 188 278 9 291 290 9 69 350 37 89 124 73 45 43 58 32 43 38 316 51 294 17 313 95 343 358 349 342 345 357 28 55 65 74 8 13 355 340 289 106 70 98 202 157 122 178 256
304 309 315 321 322 327 329 330 332 330 331 325 340 299 327 312 295 276 316 285 216 222 210 306 285 254 275 261 262 279 254 95 288 350 334 320 314 82 254 312 356 236 14 10 343 10 50 9 356 52 73 92 51 47 36 47 67 39 29 9 302 104 269 55 68 150 143 235 30 326 308 328 289 60 18 30 360 9 38 -0 353 100 241 129 123 163 135
304 310 315 319 322 324 327 326 325 323 327 330 293 277 274 174 129 293 299 222 235 273 335 289 265 282 281 272 281 281 348 263 159 332 271 326 313 107 341 132 343 311 275 12 351 339 12 121 295 9 39 17 55 36 41 35 47 6 10 6 38 67 341 78 131 125 149 168 192 203 183 358 25 358 34 16 15 3 99 102 51 36 307 92 190 157 135
308 308 313 317 320 322 321 323 326 320 322 324 317 275 252 311 136 120 223 189 241 237 196 224 231 252 261 240 256 236 229 200 7 105 294 342 354 347 172 183 86 298 49 58 25 347 345 348 41 58 98 47 40 38 21 342 33 2 26 358 60 53 38 -0 65 67 124 179 115 129 79 101 47 37 17 27 27 27 44 93 198 157 19 342 297 138 129
306 311 313 313 316 318 318 321 321 318 316 330 297 257 218 168 236 229 266 25 212 202 249 214 230 200 225 186 272 30 329 110 172 330 274 324 11 34 15 6 321 324 7 102 71 24 347 11 60 47 73 119 3 28 16 358 336 357 23 3 100 132 128 283 89 70 87 73 70 87 85 72 74 60 38 25 3 40 60 350 8 82 119 220 89 98 99
307 310 313 312 312 314 315 315 316 315 317 325 269 268 223 217 35 291 300 276 263 199 213 213 202 243 256 28 163 272 347 346 211 174 350 341 333 199 57 305 52 318 339 86 122 101 49 325 3 51 37 49 115 51 358 355 326 71 40 353 27 79 180 11 111 48 56 74 79 80 97 82 58 47 45 27 22 17 28 95 275 126 104 88 89 84 73
309 311 312 313 312 312 311 310 313 312 315 301 256 241 307 85 312 264 102 151 292 291 292 171 178 151 161 0 242 141 164 274 340 317 138 354 320 356 46 306 256 53 345 55 100 100 159 122 346 345 65 339 71 135 168 232 312 70 45 49 -0 96 279 172 56 78 66 98 86 80 90 93 75 38 32 31 19 8 22 31 5 73 106 133 119 98 90
308 309 309 309 310 311 306 307 312 312 330 283 226 245 208 277 256 304 313 287 239 237 251 246 145 119 205 109 39 332 197 136 231 246 342 151 262 77 211 26 18 354 9 8 4 105 107 113 325 348 6 191 213 119 249 179 165 125 23 26 317 78 265 70 142 77 255 101 102 106 101 90 80 37 16 11 13 31 4 21 342 309 150 140 118 91 106
307 310 309 306 306 310 308 307 312 303 307 272 286 251 184 248 240 233 219 244 260 247 186 228 96 152 244 145 186 230 226 143 130 13 328 295 174 169 94 103 73 330 354 16 35 7 14 2 10 312 312 296 298 214 207 172 161 172 159 178 136 165 122 144 135 123 48 119 121 131 116 82 41 11 346 335 331 15 61 65 54 19 349 100 121 122 107
309 311 307 308 313 312 308 305 310 306 288 273 282 290 331 312 338 316 280 265 303 250 192 186 133 171 187 184 210 103 35 329 147 138 242 320 41 89 100 91 110 0 64 353 326 339 332 324 302 317 302 297 286 283 291 290 236 96 138 75 240 116 160 223 154 131 158 196 159 139 94 136 146 246 328 336 332 17 39 8 62 72 62 58 58 94 98
309 309 308 310 310 308 306 304 305 300 280 274 276 278 266 281 283 269 290 7 288 271 106 123 127 215 236 170 221 102 231 53 50 70 51 18 -0 10 16 58 76 17 142 193 7 357 337 298 266 244 248 263 269 274 287 307 22 38 54 117 180 202 198 226 52 93 180 225 229 61 106 186 206 166 5 354 335 28 84 52 34 51 81 84 73 67 76
311 310 311 310 309 309 308 307 304 299 275 268 256 260 272 317 305 271 281 268 282 287 125 165 205 150 71 24 36 74 317 38 85 30 72 46 3 339 -0 110 149 149 109 52 34 320 288 290 308 294 269 258 242 246 53 40 15 18 41 30 13 234 183 222 102 131 90 75 103 148 130 206 164 165 20 356 40 4 352 57 43 45 58 91 98 105 104
316 314 312 315 313 313 312 307 305 296 284 274 262 259 270 271 273 303 339 354 294 316 28 14 47 42 41 83 47 352 1 357 27 114 272 122 267 278 279 272 81 90 66 63 28 352 5 44 17 18 344 347 336 336 8 72 55 34 33 23 44 2 303 169 184 170 131 117 61 85 127 122 19 1 11 16 -0 350 350 80 37 42 68 102 114 114 115
321 321 322 322 320 317 314 309 305 295 288 269 265 265 263 256 247 270 310 303 307 303 14 72 353 112 128 276 130 314 267 222 200 207 200 159 209 188 220 272 58 49 59 77 346 325 191 104 31 38 318 59 345 275 359 11 12 42 37 75 54 50 317 285 130 221 119 123 118 114 177 165 161 21 315 334 103 212 245 267 93 14 60 118 120 124 132
325 326 324 323 323 319 313 310 304 299 294 281 261 261 260 253 261 271 257 240 344 1 344 66 17 357 328 133 317 47 353 17 326 322 163 179 215 200 145 87 108 93 338 156 193 131 61 94 203 115 210 37 89 25 317 339 348 28 43 60 49 13 285 312 105 181 111 122 130 142 154 106 46 325 331 326 355 327 314 160 61 337 349 126 124 123 136
326 326 325 325 324 320 316 312 309 307 306 277 262 266 274 239 214 236 279 303 129 243 -0 33 331 341 354 22 23 16 351 31 317 74 358 267 154 133 134 172 105 116 169 115 310 69 42 96 190 143 103 335 26 242 161 19 352 343 -0 53 72 45 8 37 359 22 336 122 88 110 71 137 1 323 313 316 336 278 266 158 142 352 351 49 116 125 121
326 327 327 326 325 321 319 319 319 318 313 283 245 262 270 285 264 268 241 213 248 294 16 36 32 36 359 290 108 337 0 336 348 5 12 274 39 4 74 110 86 344 13 63 11 64 46 69 71 51 229 254 152 57 54 303 42 301 7 42 357 17 358 61 73 78 96 93 87 92 101 84 343 317 305 300 268 264 153 214 102 7 36 49 76 74 78
328 327 328 327 325 323 324 327 326 323 319 298 259 268 255 242 259 256 217 282 200 147 330 19 31 77 13 9 48 19 29 39 15 70 333 2 337 321 28 63 54 20 352 93 42 78 106 191 0 36 123 297 51 71 348 33 286 308 45 59 78 8 350 23 45 36 16 90 88 93 86 91 320 317 297 281 222 139 142 204 248 96 76 57 72 82 79
329 330 329 329 327 327 329 330 327 325 320 311 234 259 278 288 264 197 180 289 333 68 5 32 34 58 54 40 29 29 4 27 16 70 30 352 305 348 23 12 335 67 353 36 40 14 89 104 44 0 12 43 11 66 55 74 33 33 95 33 81 358 6 55 45 327 339 21 110 108 108 34 354 321 322 355 104 124 112 66 64 73 79 82 72 83 86
332 332 332 331 331 331 333 331 328 325 321 317 230 270 297 264 230 206 191 155 344 65 10 22 60 52 53 51 29 68 88 84 27 47 308 286 280 26 76 107 327 341 0 99 131 304 67 83 95 81 186 106 231 78 153 184 69 15 30 101 73 324 162 116 106 275 95 49 70 111 346 356 351 8 94 11 48 104 114 111 88 71 79 90 90 74 88
333 333 332 332 332 335 334 330 325 323 319 312 266 260 260 264 248 252 202 135 110 124 172 80 81 97 73 119 117 93 78 87 99 76 27 347 354 89 121 76 49 8 227 318 76 63 6 150 65 79 79 120 4 64 319 78 47 353 25 45 58 357 53 354 113 331 75 99 102 70 72 48 22 47 58 60 64 79 86 92 94 99 84 92 97 102 96
333 332 331 332 334 335 334 328 325 321 320 310 287 224 256 301 296 304 66 72 21 73 153 217 108 79 109 80 63 110 122 146 142 23 75 100 31 20 76 85 56 351 33 36 107 126 170 101 112 163 85 58 105 85 51 49 90 351 56 10 133 144 108 113 79 82 84 70 81 103 73 70 67 50 49 68 81 82 92 99 98 82 93 90 102 108 106
332 332 331 333 334 334 333 328 323 322 316 306 250 276 269 253 272 8 57 68 120 70 349 -0 51 14 9 54 46 40 89 72 60 184 157 128 112 49 14 100 131 29 24 47 137 132 178 106 172 147 91 48 20 64 96 87 70 121 109 100 74 6 28 63 87 183 117 64 46 84 90 85 75 70 66 70 75 84 89 93 95 104 108 106 103 108 110
333 332 333 333 334 333 332 329 323 320 317 311 303 243 218 300 31 64 58 118 226 92 121 319 351 262 79 354 141 124 126 152 160 109 79 66 104 135 104 80 144 142 164 184 63 65 66 89 52 59 83 3 36 76 5 100 120 135 97 111 109 52 70 78 58 75 73 101 93 92 90 82 75 69 74 75 74 75 75 86 97 100 99 99 110 114 113
334 333 333 334 334 335 334 330 323 320 322 322 304 283 329 210 21 27 44 180 124 110 105 128 245 294 131 109 66 61 38 30 56 127 125 128 135 154 164 144 66 105 121 110 103 105 97 62 83 56 83 81 356 92 73 62 86 57 79 74 101 151 257 71 204 95 97 103 102 107 96 83 81 83 77 76 85 89 85 85 86 87 85 79 68 71 98
333 334 334 335 336 336 335 329 323 325 331 324 318 301 277 21 57 65 79 302 79 29 44 104 238 118 70 71 114 110 72 47 32 49 48 55 57 47 56 59 86 68 103 144 140 102 74 78 66 81 55 82 66 74 77 66 61 90 81 79 77 85 88 121 119 106 100 114 142 155 112 111 103 95 97 97 94 95 95 94 92 92 92 87 85 77 71
333 336 336 336 337 335 332 328 325 332 334 332 333 295 236 114 99 74 31 72 97 162 160 107 78 106 59 71 31 47 72 68 62 60 62 61 46 47 67 73 67 60 44 58 37 30 76 90 94 114 96 94 88 70 53 83 82 65 60 77 95 105 140 134 92 100 101 92 86 87 98 103 110 118 118 112 107 104 103 102 103 102 101 99 97 96 89
334 336 337 336 334 334 330 328 326 330 332 331 300 324 42 38 92 52 32 30 85 63 91 103 42 33 69 167 155 126 133 112 86 88 84 68 65 61 61 63 79 86 68 58 80 87 85 91 126 93 106 137 78 91 90 75 74 77 75 73 73 77 88 98 110 111 111 115 118 120 116 119 128 126 126 125 122 113 112 113 108 106 104 103 92 93 104
332 335 335 334 332 330 329 326 324 329 330 318 353 0 63 355 57 40 359 24 48 71 88 87 79 49 52 49 69 64 58 42 42 48 45 53 66 79 80 71 47 38 95 122 121 81 56 86 44 44 57 34 81 154 85 93 87 86 90 91 96 101 103 105 111 108 119 126 122 119 120 123 129 131 130 132 137 138 133 136 139 137 138 135 129 127 125
331 332 333 331 329 327 326 326 324 328 335 348 16 50 94 140 300 9 352 341 33 93 102 86 102 327 38 29 75 67 71 61 63 61 56 50 47 48 43 55 50 60 50 12 41 53 51 63 63 53 57 37 67 80 96 93 93 96 100 105 108 109 101 99 102 102 110 118 122 123 123 125 133 134 134 142 142 143 142 143 144 142 141 128 125 126 114
329 329 329 329 326 325 321 322 323 334 327 4 70 128 217 225 263 303 306 293 4 62 82 85 46 11 88 342 108 155 117 104 83 57 45 39 57 49 54 55 66 21 73 86 67 62 56 72 73 67 73 17 38 80 63 77 92 97 113 114 115 109 113 110 107 111 115 124 130 126 124 131 145 141 148 153 146 149 150 155 153 146 139 135 139 136 142
328 326 327 325 324 321 317 314 317 332 308 297 278 294 245 239 270 269 281 345 44 108 122 82 105 180 104 176 82 41 97 102 84 89 65 40 106 103 66 49 33 37 16 57 13 80 11 71 46 66 43 49 73 86 84 81 94 107 99 103 117 129 130 129 129 133 137 143 136 132 142 151 159 159 152 146 143 144 142 145 152 148 137 139 142 149 156
326 325 323 322 319 317 312 307 302 301 286 310 52 146 192 223 302 288 335 44 131 258 103 108 112 87 78 307 48 279 36 23 100 55 70 320 124 79 100 72 38 75 10 85 80 64 36 58 76 88 45 44 37 75 80 85 89 92 93 92 86 86 102 117 124 132 129 97 95 119 139 151 159 158 153 152 155 155 153 157 169 169 146 151 157 164 171
324 322 321 319 313 307 305 306 329 277 280 261 96 153 316 320 298 273 36 84 51 348 67 50 99 85 61 333 113 226 176 17 109 154 116 259 304 135 160 63 6 84 123 106 55 121 114 92 132 72 92 79 53 83 96 119 109 101 91 93 92 94 92 89 87 92 91 94 92 90 98 111 121 119 134 149 157 164 162 170 185 126 103 114 129 143 139
322 319 319 313 304 294 292 290 236 323 293 249 148 247 281 281 287 9 67 102 125 237 71 136 116 147 169 123 134 244 239 92 112 80 61 175 32 27 81 97 57 13 111 86 111 70 109 167 95 96 141 73 73 110 137 132 131 116 108 100 99 99 108 116 119 106 101 99 98 96 87 80 83 87 84 82 92 102 104 106 99 99 100 93 91 90 93
319 318 312 298 281 180 281 219 195 165 222 243 284 311 293 318 39 15 309 81 36 114 144 111 122 192 152 160 107 303 45 106 199 74 274 77 130 276 61 48 98 144 40 29 33 59 45 61 89 91 51 115 129 120 113 105 93 97 100 98 94 89 87 93 109 110 109 109 109 107 108 103 90 85 84 82 81 89 91 89 104 110 109 108 103 95 92
314 309 299 278 165 208 131 6 128 245 28 332 308 48 7 24 0 330 0 22 231 93 283 209 161 171 107 95 135 260 54 155 139 113 31 120 66 15 86 103 176 91 76 78 25 350 71 32 66 95 89 87 103 97 97 97 108 111 107 107 103 104 113 120 117 115 120 115 112 121 115 104 109 115 114 106 94 93 104 108 90 79 94 112 112 101 80
302 282 237 239 205 276 148 200 116 66 343 228 44 59 29 6 43 340 272 224 47 0 271 95 207 149 102 84 91 323 132 159 102 75 108 299 95 311 354 88 304 76 110 80 70 311 60 49 55 58 86 113 110 121 120 130 124 112 116 121 128 135 143 145 143 135 137 143 150 139 132 137 123 105 101 105 100 90 89 85 82 82 79 69 75 100 107
263 278 291 262 50 273 9 20 4 38 58 71 323 92 120 253 130 250 289 52 325 273 88 207 280 106 121 132 139 65 299 81 130 168 138 52 0 147 230 83 159 91 143 117 212 48 121 128 100 95 135 125 119 145 137 133 112 121 118 118 115 115 113 113 112 109 102 97 99 101 100 105 112 123 132 131 115 102 93 88 93 89 84 83 81 72 81
301 295 308 15 350 44 144 177 247 9 54 42 32 304 86 328 256 150 107 250 190 229 226 140 67 66 79 107 98 121 285 113 245 127 106 103 253 62 64 127 221 93 108 114 257 80 94 98 131 114 189 171 147 128 114 108 121 132 128 120 115 121 133 124 115 110 104 92 81 86 86 86 78 73 74 88 93 97 103 106 104 115 120 114 98 83 81
349 241 300 301 276 265 112 29 44 66 329 223 116 213 180 214 88 29 113 143 237 167 257 116 92 109 119 120 136 118 339 286 101 82 99 68 301 110 169 107 48 127 126 207 145 96 110 116 115 137 210 149 138 127 105 96 80 83 105 131 128 148 146 121 111 101 98 94 86 85 87 87 82 77 75 70 74 84 89 96 108 113 114 62 88 96 104
291 262 194 259 233 169 165 100 253 131 110 21 39 45 0 76 199 149 167 285 295 98 86 41 118 110 47 50 26 10 166 240 79 40 73 173 283 55 81 39 60 76 208 129 99 145 145 126 148 199 200 168 137 121 128 128 120 111 106 119 137 144 121 111 108 108 103 103 107 104 101 107 119 120 110 103 94 82 77 75 65 66 108 112 127 118 114
267 225 190 239 94 0 24 31 279 45 358 40 109 142 172 165 288 339 115 231 200 36 112 121 157 103 80 15 119 313 22 358 19 67 35 43 89 65 66 86 110 246 19 62 124 141 151 116 176 174 164 136 127 123 120 123 127 132 128 127 117 111 109 108 105 103 106 111 111 106 93 97 108 120 123 122 115 112 107 97 94 103 111 104 95 118 128
318 8 125 33 24 160 60 330 306 123 183 210 151 168 169 188 195 188 193 214 128 179 113 111 128 99 113 167 52 18 92 143 309 95 217 84 56 33 121 155 188 81 125 203 148 81 59 102 133 133 136 130 128 129 130 127 134 149 148 126 111 110 111 116 120 123 124 123 124 127 132 134 109 115 106 97 111 128 131 148 180 151 242 132 132 120 112
253 139 75 79 8 309 144 166 145 262 265 140 213 192 183 217 189 208 215 129 130 122 129 150 98 97 98 103 128 197 228 89 65 115 141 84 98 60 295 0 93 110 294 194 132 131 161 167 170 156 137 135 140 133 127 133 139 130 133 138 138 124 117 112 112 113 117 119 124 124 134 133 130 124 114 125 124 102 122 120 100 134 138 102 119 136 147
288 339 134 76 99 254 248 168 218 212 174 192 221 220 209 208 208 178 182 138 141 155 123 108 113 130 126 154 44 25 62 84 100 0 48 67 98 245 318 98 231 165 150 215 144 134 165 168 167 147 136 140 136 132 128 129 129 122 115 109 105 111 112 113 115 121 128 123 122 133 139 140 141 129 133 128 117 119 126 121 124 77 62 101 135 145 154
271 207 106 112 221 180 197 245 194 240 236 195 203 218 230 221 117 139 152 119 136 115 112 99 90 81 34 323 71 138 109 59 70 356 0 125 42 44 29 13 311 251 173 180 206 156 153 161 148 139 145 141 137 134 128 131 124 122 122 124 127 124 125 127 126 131 135 143 146 131 128 127 130 144 148 139 150 155 152 150 137 111 88 358 101 140 159
261 254 180 213 197 157 239 249 201 232 227 217 204 205 161 116 93 89 99 111 112 117 118 119 145 101 104 109 83 51 34 329 89 234 298 50 97 173 146 195 169 224 261 197 148 140 151 153 143 140 140 139 133 132 133 133 125 128 126 124 131 134 139 135 138 132 121 116 123 125 125 116 115 113 130 137 154 169 161 144 135 145 160 199 217 204 214
253 316 340 271 250 263 241 234 232 236 255 57 79 61 77 97 100 111 106 76 75 88 64 42 49 91 162 125 107 92 136 221 118 123 80 116 161 185 129 168 222 194 235 252 101 141 143 147 140 138 138 137 132 135 132 131 128 130 126 119 112 98 107 112 104 95 102 132 141 134 124 106 121 150 151 164 161 134 117 125 136 160 183 190 177 264 307
281 248 234 217 180 228 182 229 241 127 71 28 13 53 69 122 124 113 82 96 86 77 74 122 157 132 128 59 61 120 204 95 81 141 152 171 184 161 194 190 220 239 104 114 138 142 143 146 133 136 133 136 136 133 127 132 136 134 136 136 130 112 102 98 102 99 136 103 88 79 85 135 177 158 137 112 101 105 134 164 174 178 181 178 165 184 203
336 262 254 269 240 266 258 238 289 176 142 141 211 230 87 112 114 105 102 100 98 100 130 108 88 74 59 116 184 121 53 78 114 123 121 239 172 161 193 194 193 165 128 114 105 108 111 113 125 127 134 135 133 129 128 129 132 135 132 129 128 125 121 119 137 153 124 112 104 102 100 15 343 75 71 66 72 98 271 254 211 192 172 176 184 161 131